STARLINK-1114 (44927 NORAD) Tracking and Keplerian Element Data

This shows tracking and keplerian element data for the satellite.

Feedback or suggestion? Click here.




ElementValue
Catalog44927
NameSTARLINK-1114
Epoch Orbit1328
Epoch Day93.91667824
Epoch Year2020
RAAN353.6287
Inclination53.0023
Eccentricity0.000212
Argument of Perigee63.308
Mean Anonmoly270.5447
Mean Motion15.0559272
Decay Rate-9.866E-05
L11 44927U 20001P 20093.91667824 -.00009866 00000-0 -65859-3 0 9993
L22 44927 53.0023 353.6287 0002120 63.3080 270.5447 15.05592720 13289

Live tracking and technical data element details for STARLINK-1114 (NORAD 44927). STARLINK-1114 can be tracked NOW for your location showing map with azimuth and elevation plus other details from your city location.

Track the satellite on the map from your city or location and see movement details for azimuth, elevation, latitude, longitude, range, height, and movement on the map or in text.







IsCatalogInMostPopularTable: catalog: 44927, numindb: 21
Update: records affected: 1



GetName: 44927 STARLINK-1114

Hit Count: updated at: Sun, 05 Apr 2020 18:55:39 GMT